Wichita Jabara, KS

10:56 PM CDT on May 22, 2017 (GMT -0500)
Col Jabara

Weather History for KAAO - March, 2014

Change the Weather History Date:

Tuesday, March 18, 2014

  Actual Average (KIAB) Record (KIAB)
Temperature  
Mean Temperature 53 °F -  
Max Temperature 64 °F 56 °F 77 °F (2007)
Min Temperature 37 °F 35 °F 35 °F (1998)
Degree Days  
Heating Degree Days 12    
Growing Degree Days 3 (Base 50)    
Moisture  
Dew Point 31 °F    
Average Humidity 48    
Maximum Humidity 76    
Minimum Humidity 33    
Precipitation  
Precipitation 0.00 in - - ()
Sea Level Pressure  
Sea Level Pressure 29.45 in    
Wind  
Wind Speed 19 mph (SSW)    
Max Wind Speed 28 mph    
Max Gust Speed 34 mph    
Visibility 10 miles    
Events      
Averages and records for this station are not official NWS values.
T = Trace of Precipitation, MM = Missing Value Source: NWS Daily Summary

Daily Weather History Graph

Daily Weather History Graph

Search for Another Location

Airport or City:

Trip Planner

Search our weather history database for the weather conditions in past years. The results will help you decide how hot, cold, wet, or windy it might be!

Date:

Astronomy

Mar. 18, 2014 Rise Set
Actual Time 7:35 AM CDT 7:38 PM CDT
Civil Twilight 7:09 AM CDT 8:05 PM CDT
Nautical Twilight 6:38 AM CDT 8:35 PM CDT
Astronomical Twilight 6:07 AM CDT 9:06 PM CDT
Moon 9:54 PM CDT (3/18) 8:27 AM CDT (3/18)
Length of Visible Light 12h 55m
Length of Day
12h 03m
Waning Gibbous, 96% of the Moon is Illuminated
Mar 18
Waning Gibbous
Mar 23
Last Quarter
Mar 30
New
Apr 7
First Quarter
Apr 15
Full

Hourly Weather History & Observations

Time (CDT) Temp. Windchill Dew Point Humidity Pressure Visibility Wind Dir Wind Speed Gust Speed Precip Events Conditions
12:54 AM 46.0 °F 37.8 °F 28.9 °F 51% 29.45 in 10.0 mi SSE 23.0 mph 32.2 mph N/A   Clear
1:54 AM 46.9 °F - 28.9 °F 50% 29.43 in 10.0 mi SSE 19.6 mph 28.8 mph N/A   Clear
2:54 AM 45.0 °F 37.4 °F 28.9 °F 53% 29.41 in 10.0 mi SSE 18.4 mph 25.3 mph N/A   Clear
3:54 AM 45.0 °F 37.1 °F 28.0 °F 52% 29.37 in 10.0 mi SSE 19.6 mph 31.1 mph N/A   Clear
4:54 AM 43.0 °F 35.4 °F 28.0 °F 56% 29.36 in 10.0 mi SSE 16.1 mph 25.3 mph N/A   Clear
5:54 AM 43.0 °F 35.4 °F 28.0 °F 56% 29.37 in 10.0 mi SSE 16.1 mph - N/A   Clear
6:54 AM 44.1 °F 36.8 °F 28.9 °F 55% 29.35 in 10.0 mi SSE 16.1 mph - N/A   Clear
7:54 AM 45.0 °F 37.6 °F 30.0 °F 56% 29.36 in 10.0 mi South 17.3 mph 25.3 mph N/A   Clear
8:54 AM 46.9 °F - 30.0 °F 52% 29.37 in 10.0 mi South 16.1 mph - N/A   Clear
9:54 AM 48.9 °F - 30.9 °F 50% 29.37 in 10.0 mi South 19.6 mph 26.5 mph N/A   Clear
10:54 AM 54.0 °F - 32.0 °F 43% 29.37 in 10.0 mi South 21.9 mph 29.9 mph N/A   Clear
11:54 AM 55.9 °F - 33.1 °F 42% 29.39 in 10.0 mi SSW 20.7 mph - N/A   Clear
12:54 PM 57.9 °F - 32.0 °F 37% 29.40 in 10.0 mi SW 12.7 mph 23.0 mph N/A   Clear
1:54 PM 59.0 °F - 32.0 °F 36% 29.41 in 10.0 mi WNW 12.7 mph 21.9 mph N/A   Clear
2:54 PM 61.0 °F - 33.1 °F 35% 29.44 in 10.0 mi WNW 11.5 mph - N/A   Clear
3:54 PM 63.0 °F - 33.1 °F 33% 29.46 in 10.0 mi WNW 20.7 mph - N/A   Clear
4:54 PM 61.0 °F - 33.1 °F 35% 29.49 in 10.0 mi WNW 13.8 mph - N/A   Clear
5:54 PM 62.1 °F - 35.1 °F 37% 29.53 in 10.0 mi WNW 20.7 mph 28.8 mph N/A   Clear
6:54 PM 54.0 °F - 34.0 °F 47% 29.61 in 10.0 mi WNW 27.6 mph 34.5 mph N/A   Partly Cloudy
7:54 PM 46.0 °F 38.5 °F 33.1 °F 61% 29.68 in 10.0 mi WNW 19.6 mph 29.9 mph N/A   Clear
11:54 PM 37.0 °F 25.9 °F 30.0 °F 76% 29.87 in 10.0 mi NW 23.0 mph 32.2 mph N/A   Overcast